Аэропорт Баку (UBBB)

baku-airport

Международный аэропорт Баку

ICAO: UBBB, IATA: GYD

Бакинский международный аэропорт имени Гейдара Алиева — один из пяти международных аэропортов, обслуживающих Азербайджан. Находится в 25 километрах к востоку от Баку. Порт приписки национальной авиакомпании «Азербайджанские авиалинии».

Принимаемые типы ВС
Ан-12, Ан-24, Ан-26, Ан-28, Ан-30, Ан-32, Ан-72, Ан-74, Ан-124(по согласованию), Ил-62, Ил-76, Ту-134, Ту-154, Як-40, Як-42, Airbus A319, Airbus A320, Airbus A321, Boeing 737, Boeing 747, Boeing 757, Boeing 767 и др. типы ВС 3-4 класса, вертолёты всех типов.

 Схемы: Jeppesen

Сценарии: бесплатные демо-версии с уменьшенным разрешением:

 fs9     fsx     Prepar

платные: http://www.drzewiecki-design.net/

METAR:

UBBB 231830Z 18014KT 9999 BKN006 10/09 Q1013 R88/CLRD// NOSIG

TAF TAF UBBB 231718Z 2318/2418 18016G26KT 8000 BKN006 TX10/2411Z TN04/2404Z TEMPO 2318/2321 5000 BR BKN004 BECMG 2321/2322 18010KT 3000 BR BKN004 TEMPO 2322/2401 VRB04KT 0800 FG BKN002 BECMG 2401/2403 33016KT 8000 NSW BKN007 BKN025 BKN100 TEMPO 2403/2407 3000 BR BKN003